{"data":{"norad_id":68940,"epoch":"2026-05-25T02:47:20.449824Z","epoch_age_seconds":58802,"freshness":"FRESH","line1":"1 68940U 26098X   26145.11620891  .00016421  00000+0  49964-3 0  9996","line2":"2 68940  51.8726 178.8808 0006115  68.1134 292.0501 15.34133486  3802","mean_motion":15.34133486,"eccentricity":0.0006115,"inclination_deg":51.8726,"raan_deg":178.8808,"arg_perigee_deg":68.1134,"mean_anomaly_deg":292.0501,"bstar":0.00049964,"rev_number":380,"period_min":93.864061578798,"perigee_km":459.31183238685,"apogee_km":467.67914892292,"semimajor_km":6841.6324906549,"source":"CELESTRAK","updated_at":"2026-05-25T13:38:08.797084Z"}}